sat.trackr.live / text

‹ back to catalog

BEIDOU-3S IGSO-1S (C31)

NORAD 40549 · 2015-019A

PAYLOAD INACTIVE UNKNOWN

§ Identity

Operator
Country
PRC
Launch date
2015-03-30
Launch site
XICLF
Launch vehicle
Mass (kg)
RCS (m²)
11.79

Purposes: comms, nav

External: N2YO · Heavens-Above · Gunter

§ Orbital elements

Epoch: 2026-09-13T01:51:38.547072Z

Period
1,435.84 min
Inclination
49.0267°
Eccentricity
0.0038755
Mean motion
1.00289448 rev/d
Perigee alt
35,618.3 km
Apogee alt
35,945.0 km
Semi-major
42,159.8 km
B*
0.0000e+0
RAAN
294.3950°
Arg perigee
200.8292°
Mean anomaly
340.5769°
Rev number
4,195

§ Raw data

BEIDOU-3S IGSO-1S (C31)1 40549U 15019A   26256.07752948 -.00000168  00000+0  00000+0 0  99952 40549  49.0267 294.3950 0038755 200.8292 340.5769  1.00289448 41954

JSON: /api/v1/satellites/40549 · /tle

For live sub-satellite position, see the globe view (requires WebGL).

§ Visibility from observer

Set your observer location to see the next 7 days of passes ≥ 10°. The values pass through the URL so the page stays shareable.

No JS? Fill the form by hand. The geolocation button needs JavaScript.